• In Hungary
  • List of Countries
  • For 7 days
  • Water Temperature
  • Satellite Maps
  • Weather Map
  • News
  • Weather Widgets
  • user-avatar
    Login

    Hourly Weather Carrickfergus

    Today, 19 November, Sunday

    Time Temperature Precipitation Wind Pressure Humidity
    00:00 +3°C° 0 mm 4 mps 757 mmHg 79%
    01:00 +3°C° 0 mm 4 mps 757 mmHg 79%
    02:00 +3°C° 0 mm 3 mps 757 mmHg 80%
    03:00 +2°C° 0 mm 3 mps 757 mmHg 81%
    04:00 +2°C° 0 mm 3 mps 757 mmHg 81%
    05:00 +2°C° 0 mm 3 mps 757 mmHg 81%
    06:00 +3°C° 0 mm 2 mps 757 mmHg 81%
    07:00 +3°C° 0 mm 2 mps 757 mmHg 81%
    08:00 +3°C° 0 mm 2 mps 757 mmHg 82%
    09:00 +3°C° 0 mm 2 mps 757 mmHg 82%
    10:00 +4°C° 0 mm 2 mps 757 mmHg 79%
    11:00 +5°C° 0 mm 2 mps 757 mmHg 76%
    12:00 +6°C° 0 mm 2 mps 757 mmHg 73%
    13:00 +5°C° 0 mm 3 mps 756 mmHg 74%
    14:00 +5°C° 0 mm 4 mps 756 mmHg 76%
    15:00 +5°C° 0 mm 4 mps 755 mmHg 77%
    16:00 +5°C° 0 mm 5 mps 754 mmHg 81%
    17:00 +5°C° 0 mm 5 mps 754 mmHg 84%
    18:00 +5°C° 0 mm 5 mps 753 mmHg 87%
    19:00 +5°C° 0.9 mm 6 mps 752 mmHg 89%
    20:00 +5°C° 0.9 mm 6 mps 751 mmHg 92%
    21:00 +6°C° 0.9 mm 7 mps 751 mmHg 94%
    22:00 +8°C° 1.5 mm 7 mps 750 mmHg 94%
    23:00 +7°C° 1.5 mm 8 mps 749 mmHg 93%

    Tomorrow, 20 November, Monday

    Time Temperature Precipitation Wind Pressure Humidity
    00:00 +9°C° 1.5 mm 8 mps 748 mmHg 93%
    01:00 +9°C° 0.2 mm 8 mps 747 mmHg 93%
    02:00 +9°C° 0.2 mm 7 mps 747 mmHg 93%
    03:00 +10°C° 0.2 mm 7 mps 746 mmHg 94%
    04:00 +10°C° 0.2 mm 7 mps 746 mmHg 94%
    05:00 +10°C° 0.2 mm 7 mps 746 mmHg 94%
    06:00 +10°C° 0.2 mm 6 mps 745 mmHg 94%
    07:00 +10°C° 0.1 mm 6 mps 745 mmHg 93%
    08:00 +10°C° 0.1 mm 7 mps 745 mmHg 93%
    09:00 +10°C° 0.1 mm 7 mps 745 mmHg 92%
    10:00 +10°C° 0.5 mm 7 mps 745 mmHg 91%
    11:00 +10°C° 0.5 mm 7 mps 745 mmHg 91%
    12:00 +11°C° 0.5 mm 8 mps 745 mmHg 91%
    13:00 +10°C° 0.2 mm 7 mps 745 mmHg 91%
    14:00 +10°C° 0.2 mm 6 mps 746 mmHg 91%
    15:00 +10°C° 0.2 mm 5 mps 746 mmHg 91%
    16:00 +10°C° 0.1 mm 5 mps 746 mmHg 92%
    17:00 +10°C° 0.1 mm 4 mps 746 mmHg 93%
    18:00 +10°C° 0.1 mm 4 mps 746 mmHg 95%
    19:00 +10°C° 0.1 mm 4 mps 746 mmHg 95%
    20:00 +10°C° 0.1 mm 3 mps 746 mmHg 96%
    21:00 +10°C° 0.1 mm 3 mps 746 mmHg 96%
    22:00 +10°C° 1 mm 3 mps 746 mmHg 96%
    23:00 +10°C° 1 mm 3 mps 746 mmHg 97%

    Day after tomorrow, 21 November, Tuesday

    Time Temperature Precipitation Wind Pressure Humidity
    00:00 +10°C° 1 mm 2 mps 746 mmHg 97%
    01:00 +11°C° 0.4 mm 3 mps 745 mmHg 97%
    02:00 +11°C° 0.4 mm 4 mps 745 mmHg 96%
    03:00 +12°C° 0.4 mm 5 mps 745 mmHg 96%
    04:00 +12°C° 0.3 mm 5 mps 744 mmHg 95%
    05:00 +11°C° 0.3 mm 6 mps 743 mmHg 95%
    06:00 +11°C° 0.3 mm 6 mps 743 mmHg 95%
    07:00 +11°C° 0.1 mm 6 mps 742 mmHg 94%
    08:00 +11°C° 0.1 mm 6 mps 742 mmHg 93%
    09:00 +10°C° 0.1 mm 7 mps 741 mmHg 92%
    10:00 +10°C° 0.1 mm 7 mps 741 mmHg 92%
    11:00 +10°C° 0.1 mm 7 mps 740 mmHg 91%
    12:00 +10°C° 0.1 mm 7 mps 740 mmHg 90%
    13:00 +11°C° 0.7 mm 8 mps 739 mmHg 91%
    14:00 +11°C° 0.7 mm 8 mps 738 mmHg 91%
    15:00 +11°C° 0.7 mm 9 mps 737 mmHg 92%
    16:00 +11°C° 0.3 mm 8 mps 736 mmHg 92%
    17:00 +12°C° 0.3 mm 8 mps 736 mmHg 92%
    18:00 +12°C° 0.3 mm 7 mps 735 mmHg 92%
    19:00 +12°C° 0.3 mm 7 mps 735 mmHg 92%
    20:00 +12°C° 0.3 mm 7 mps 735 mmHg 92%
    21:00 +12°C° 0.3 mm 7 mps 735 mmHg 92%
    22:00 +11°C° 0.2 mm 6 mps 735 mmHg 91%
    23:00 +10°C° 0.2 mm 6 mps 735 mmHg 91%

    22 November, Wednesday

    Time Temperature Precipitation Wind Pressure Humidity
    00:00 +9°C° 0.2 mm 5 mps 735 mmHg 91%
    01:00 +9°C° 0.1 mm 5 mps 734 mmHg 91%
    02:00 +8°C° 0.1 mm 5 mps 734 mmHg 92%
    03:00 +8°C° 0.1 mm 4 mps 734 mmHg 92%
    04:00 +8°C° 0.9 mm 4 mps 733 mmHg 92%
    05:00 +9°C° 0.9 mm 3 mps 733 mmHg 92%
    06:00 +9°C° 0.9 mm 3 mps 732 mmHg 92%
    07:00 +8°C° 1.4 mm 4 mps 732 mmHg 93%
    08:00 +8°C° 1.4 mm 4 mps 731 mmHg 93%
    09:00 +8°C° 1.4 mm 5 mps 730 mmHg 94%
    10:00 +8°C° 1.1 mm 5 mps 730 mmHg 94%
    11:00 +9°C° 1.1 mm 5 mps 729 mmHg 95%
    12:00 +9°C° 1.1 mm 5 mps 729 mmHg 95%
    13:00 +10°C° 0.7 mm 5 mps 728 mmHg 95%
    14:00 +10°C° 0.7 mm 5 mps 727 mmHg 95%
    15:00 +12°C° 0.7 mm 5 mps 726 mmHg 95%
    16:00 +10°C° 0.4 mm 6 mps 726 mmHg 94%
    17:00 +10°C° 0.4 mm 6 mps 725 mmHg 94%
    18:00 +10°C° 0.4 mm 7 mps 725 mmHg 94%
    19:00 +10°C° 0.5 mm 7 mps 725 mmHg 92%
    20:00 +10°C° 0.5 mm 8 mps 725 mmHg 90%
    21:00 +10°C° 0.5 mm 8 mps 725 mmHg 88%
    22:00 +10°C° 0 mm 8 mps 726 mmHg 88%
    23:00 +8°C° 0 mm 9 mps 728 mmHg 88%

    23 November, Thursday

    Time Temperature Precipitation Wind Pressure Humidity
    00:00 +8°C° 0 mm 9 mps 729 mmHg 88%
    01:00 +7°C° 0 mm 9 mps 730 mmHg 85%
    02:00 +6°C° 0 mm 8 mps 731 mmHg 81%
    03:00 +5°C° 0 mm 8 mps 733 mmHg 78%
    04:00 +4°C° 0 mm 8 mps 733 mmHg 80%
    05:00 +4°C° 0 mm 8 mps 734 mmHg 81%
    06:00 +4°C° 0 mm 8 mps 735 mmHg 83%
    07:00 +4°C° 0.1 mm 8 mps 735 mmHg 82%
    08:00 +4°C° 0.1 mm 8 mps 735 mmHg 82%
    09:00 +5°C° 0.1 mm 8 mps 735 mmHg 81%
    10:00 +6°C° 0.4 mm 9 mps 734 mmHg 84%
    11:00 +8°C° 0.4 mm 10 mps 733 mmHg 87%
    12:00 +9°C° 0.4 mm 11 mps 733 mmHg 89%
    13:00 +9°C° 0.1 mm 10 mps 733 mmHg 87%
    14:00 +10°C° 0.1 mm 9 mps 733 mmHg 84%
    15:00 +10°C° 0.1 mm 8 mps 733 mmHg 81%
    16:00 +10°C° 0.1 mm 8 mps 733 mmHg 83%
    17:00 +8°C° 0.1 mm 9 mps 733 mmHg 85%
    18:00 +8°C° 0.1 mm 9 mps 733 mmHg 86%
    19:00 +8°C° 0.1 mm 9 mps 733 mmHg 84%
    20:00 +7°C° 0.1 mm 10 mps 733 mmHg 82%
    21:00 +7°C° 0.1 mm 10 mps 733 mmHg 80%
    22:00 +7°C° 0 mm 11 mps 733 mmHg 79%
    23:00 +7°C° 0 mm 11 mps 733 mmHg 78%

    24 November, Friday

    Time Temperature Precipitation Wind Pressure Humidity
    00:00 +5°C° 0 mm 12 mps 733 mmHg 77%
    01:00 +6°C° 0 mm 11 mps 733 mmHg 78%
    02:00 +6°C° 0 mm 10 mps 734 mmHg 79%
    03:00 +6°C° 0 mm 9 mps 734 mmHg 81%
    04:00 +5°C° 0 mm 9 mps 735 mmHg 82%
    05:00 +5°C° 0 mm 8 mps 735 mmHg 83%
    06:00 +4°C° 0 mm 8 mps 736 mmHg 84%
    07:00 +4°C° 0 mm 8 mps 736 mmHg 84%
    08:00 +4°C° 0 mm 8 mps 737 mmHg 85%
    09:00 +4°C° 0 mm 8 mps 738 mmHg 86%
    10:00 +5°C° 0 mm 7 mps 738 mmHg 82%
    11:00 +5°C° 0 mm 7 mps 739 mmHg 79%
    12:00 +6°C° 0 mm 7 mps 740 mmHg 75%
    13:00 +7°C° 0 mm 6 mps 740 mmHg 76%
    14:00 +6°C° 0 mm 5 mps 740 mmHg 77%
    15:00 +6°C° 0 mm 4 mps 740 mmHg 78%
    16:00 +5°C° 0 mm 3 mps 741 mmHg 80%
    17:00 +5°C° 0 mm 2 mps 741 mmHg 83%
    18:00 +6°C° 0 mm 1 mps 741 mmHg 85%
    19:00 +6°C° 0 mm 1 mps 741 mmHg 85%
    20:00 +6°C° 0 mm 1 mps 741 mmHg 85%
    21:00 +6°C° 0 mm 1 mps 741 mmHg 85%
    22:00 +5°C° 0 mm 2 mps 741 mmHg 84%
    23:00 +5°C° 0 mm 2 mps 741 mmHg 84%
    Show more